Погода в Турецком

Россия / Удмуртская Республика     58°00′19″N   53°15′12″E
темп.,
°C
ветер,
м/с
пор.,
м/с
влажн.,
%
обл.,
%
осадки,
мм/ч
давл.,
гПа
погр.,
м
17 апреля, сб
сб1701:00+1св25805 0.0 103085
04:000св22815 0.0 103033
07:00+2с24733 0.0 1030105
10:00+7ссв34545 0.0 10291249
13:00+9с24485 0.0 10281538
16:00+10ссз34475 0.0 10261624
19:00+6зсз11785 0.0 102516
22:00+2сз25865 0.0 102572
18 апреля, вс
вс1801:00+2сз27895 0.0 1024127
04:00+1зсз28920 0.0 1024146
07:00+3с4108466 0.0 1024717
10:00+3св575818 0.0 10271098
13:00+4св57415 0.0 10281552
16:00+5св574082 0.0 10301929
19:00+2св49525 0.0 1031550
22:000всв311644 0.0 1033413
19 апреля, пн
пн1901:00−1всв411665 0.0 1034429
04:00−2всв38710 0.0 1036291
07:00−1всв36630 0.0 1037378
10:00+3всв35405 0.0 10371432
13:00+5всв34365 0.0 10361655
16:00+5всв34363 0.0 10361622
19:00+2всв24520 0.0 103676
22:00−1всв22610 0.0 103739
20 апреля, вт
вт2001:00−2в22630 0.0 103821
04:00−2в11590 0.0 103910
07:00+1в11480 0.0 1039134
10:00+5вюв11320 0.0 1038850
13:00+8ююз01290 0.0 10371179
16:00+9зюз01280 0.0 10361219
19:00+6в11420 0.0 103510
22:00+2юв22530 0.0 103511
21 апреля, ср
ср2101:00+1ю11620 0.0 103511
04:000юв116213 0.0 103512
07:00+3юв265414 0.0 1034174
10:00+8ююв4735100 0.0 1033872
13:00+11ююв583198 0.0 10311231
16:00+12ю5831100 0.0 10301396
19:00+9ююв41141100 0.0 1030448
22:00+5ююв41455100 0.0 1030385